This is the latest recevied weather packets stored in our database for station/object KA1JKB. If no packets are shown the sender has not sent any weather packets the latest 10 day(s).
| Time | Temp. | Humidity | Pressure | Rain* | Wind** | Luminosity | Snow |
|---|---|---|---|---|---|---|---|
| 1787735148 | 12.78° C | 99% | 1014.2 hPa | 0 mm | - | 0 W/m² | - |
| 1787734843 | 12.78° C | 99% | 1014.1 hPa | 0 mm | - | 0 W/m² | - |
| 1787734543 | 12.78° C | 99% | 1014.4 hPa | 0 mm | - | 0 W/m² | - |
| 1787734238 | 12.22° C | 99% | 1014.4 hPa | 0 mm | - | 0 W/m² | - |
| 1787733938 | 12.78° C | 99% | 1014.6 hPa | 0 mm | - | 0 W/m² | - |
| 1787733638 | 12.78° C | 99% | 1014.4 hPa | 0 mm | - | 0 W/m² | - |
| 1787733334 | 13.33° C | 99% | 1014.6 hPa | 0 mm | - | 0 W/m² | - |
| 1787733030 | 13.33° C | 99% | 1014.7 hPa | 0 mm | - | 0 W/m² | - |
| 1787732730 | 13.33° C | 99% | 1014.7 hPa | 0 mm | - | 0 W/m² | - |
| 1787732430 | 13.33° C | 99% | 1014.7 hPa | 0 mm | - | 0 W/m² | - |
| 1787732125 | 12.78° C | 99% | 1014.9 hPa | 0 mm | - | 0 W/m² | - |
| 1787731823 | 13.33° C | 99% | 1014.8 hPa | 0 mm | - | 0 W/m² | - |
| 1787731521 | 13.33° C | 99% | 1014.9 hPa | 0 mm | - | 0 W/m² | - |
| 1787731217 | 13.33° C | 99% | 1014.7 hPa | 0 mm | - | 0 W/m² | - |
| 1787730912 | 13.33° C | 99% | 1014.9 hPa | 0 mm | - | 0 W/m² | - |
| 1787730607 | 13.33° C | 99% | 1014.8 hPa | 0 mm | - | 0 W/m² | - |
| 1787730306 | 13.33° C | 99% | 1014.7 hPa | 0 mm | - | 0 W/m² | - |
| 1787730001 | 13.33° C | 99% | 1014.9 hPa | 0 mm | - | 0 W/m² | - |
| 1787729701 | 13.33° C | 99% | 1014.8 hPa | 0 mm | - | 0 W/m² | - |
| 1787729395 | 13.33° C | 99% | 1014.8 hPa | 0 mm | - | 0 W/m² | - |
| 1787729095 | 13.89° C | 99% | 1014.3 hPa | 0 mm | - | 0 W/m² | - |
| 1787728790 | 13.89° C | 99% | 1014.9 hPa | 0 mm | - | 0 W/m² | - |
| 1787728487 | 13.89° C | 99% | 1014.9 hPa | 0 mm | - | 0 W/m² | - |
| 1787728182 | 13.89° C | 99% | 1014.9 hPa | 0 mm | - | 0 W/m² | - |
| 1787727877 | 13.89° C | 99% | 1014.8 hPa | 0 mm | - | 0 W/m² | - |
* Rain latest hour (hover to see other rain measurements)
** Current wind speed in m/s (hover to see current wind gust speed)